Toledo Express Airport
KTOL : now visible

Airfield :











YOU CAN JOIN US ON...

 
LOGIN :

Register | Disclaimer

   EN    FR    IT 

 









Legend :    VFR   Marginal VFR   IFR   Intensive IFR   Very Intensive IFR
Visi :
Ceiling :
>= 8 km
>= 3000ft
5 to 8 km
1000 to 3000 ft
1500m to 5 km
500 to 1000 ft
800 to 1500m
200 to 500 ft
< 800m
< 200 ft
Symbols :   Thunderstorms  Fog  Heavy snow  Heavy precipitations  Wind > 20 kt






- Airport Elevation : 683 ft
- IATA code : TOL


KTOL - Toledo Express

CURRENT METAR :
  • 280452Z 15003KT 10SM SCT100 23/18 A2996 RMK AO2 SLP139 T02280183 403060178

EXPIRED METARs :
  • 280352Z 11003KT 10SM OVC060 23/19 A2996 RMK AO2 SLP141 T02330194
  • 280252Z 00000KT 10SM OVC065 23/21 A2996 RMK AO2 SLP142 T02280206 53001

TAF KTOL
Valid from the 28 at 00:00 until the 29 at 00:00 UTC


272341Z 2800/2824 16009KT P6SM BKN070
FM280300 18004KT P6SM BKN090
FM280900 18007KT P6SM BKN045
FM281500 19007KT P6SM BKN030
FM281800 20008KT P6SM VCSH BKN035
KZOB FIR / North America



MET'MAP, your aeronautical weather chart ! - Copyright ORBIFLY December 2007 - Disclaimer

ORBIFLY MET'MAP TEAM :

Programming & Development : Alexandra Zaïnal
Concept & original design : Baudouin d'Aumeries
Assistance for programming : Marc-Olivier Méhu
Technical & hardware support : Manuel Goepfert

Contact : metmap@orbifly.com




SOURCES & CREDITS :

   NOAA       Earth
Advisory